SCP
0 0 0 1 1 0 0 0 0 0 0 0 0 0 0 1 1 1 1 1 1 1 2 2 1 1 1 1 1 2 1 1 1 1 1 1 1 1 1 1 1 1 1 1 1 1 1 2 3
0 0 0 1 0 0 0 0 0 0 0 0 0 0 1 1 1 1 1 1 1 1 2 2 1 1 1 1 1 2 1 1 1 1 1 1 1 1 1 1 1 1 1 1 1 1 1 2 3
0 0 1 0 0 0 0 0 0 0 0 1 1 1 1 1 1 1 1 1 1 1 2 2 2 2 1 1 1 2 1 1 1 1 1 1 1 1 1 1 1 1 1 2 1 1 2 2 3
0 0 0 0 0 0 0 0 0 0 0 1 1 1 1 1 1 1 1 1 1 1 1 2 2 2 1 1 1 1 1 1 1 1 1 1 1 1 1 1 1 1 1 1 1 1 2 2 2
0 0 0 0 0 0 0 0 0 0 0 1 1 1 1 1 1 1 1 1 1 1 1 2 2 2 2 1 1 1 1 1 1 1 1 1 1 1 1 1 1 1 1 1 1 1 1 2 2
0 0 0 0 0 0 0 0 0 0 0 1 1 1 1 1 1 1 1 1 1 1 1 1 1 2 2 2 2 1 2 2 2 2 2 1 1 1 1 1 1 1 1 1 1 1 1 1 1
0 0 0 0 0 0 0 0 0 0 0 1 1 1 1 1 2 2 1 1 1 1 1 1 1 1 1 1 1 1 2 2 2 2 2 1 1 1 1 1 1 1 1 1 1 1 1 1 1
0 0 0 0 0 0 0 0 0 0 0 1 1 1 1 2 2 2 2 2 2 1 1 2 2 2 1 1 1 1 1 1 2 2 1 1 1 1 1 1 1 1 1 1 1 1 1 1 1
0 0 0 0 0 0 0 0 0 0 0 1 1 2 2 2 2 2 2 2 2 2 2 2 2 2 2 1 1 2 2 1 1 1 1 1 1 1 1 1 1 1 1 1 1 1 1 1 1
0 0 0 0 0 0 0 0 0 0 0 0 1 2 2 2 2 2 2 3 3 4 3 3 3 3 3 2 2 2 2 2 1 1 1 1 1 1 1 1 1 1 1 1 1 1 1 1 1
0 0 0 0 0 0 0 0 0 0 0 1 1 2 3 3 3 2 2 3 4 4 4 4 4 3 3 3 3 3 2 2 2 1 1 1 1 2 2 1 1 1 1 1 1 1 1 1 1
0 0 0 0 0 0 0 0 0 1 1 1 1 2 3 3 3 3 2 3 4 4 4 4 4 4 3 2 2 2 2 2 2 2 2 2 2 2 2 2 1 1 1 1 1 1 1 1 1
0 0 0 0 0 0 0 1 1 1 1 1 2 2 3 3 3 3 2 3 3 4 4 4 4 4 3 2 1 1 1 1 1 2 2 2 2 2 2 2 1 1 1 1 1 1 1 1 1
0 0 1 1 0 0 1 1 1 1 1 1 2 2 3 3 3 3 2 3 3 3 4 4 4 3 2 2 1 1 1 1 1 1 1 2 2 2 2 1 1 1 1 1 1 1 1 1 1
0 1 1 1 1 1 1 1 1 1 1 2 2 2 3 3 3 2 2 3 3 4 4 4 4 3 3 2 2 2 2 1 1 1 1 1 1 1 1 1 1 1 1 1 1 1 2 2 2
0 0 1 1 1 1 1 1 1 1 1 2 2 2 2 3 3 2 2 3 4 4 4 5 4 4 3 3 3 2 2 2 2 2 2 1 1 1 1 1 1 1 1 1 1 2 2 2 2
0 0 0 1 1 1 1 1 1 1 1 2 2 2 3 3 4 3 3 3 3 4 4 5 5 4 4 4 4 3 3 2 2 2 2 2 1 1 1 1 1 1 1 1 2 2 2 2 2
0 0 0 1 1 1 1 1 1 1 2 2 2 3 3 4 4 4 3 3 3 3 5 6 6 5 5 5 5 4 4 4 3 2 2 2 2 2 2 1 1 1 1 1 2 2 3 2 2
0 0 0 0 1 1 1 1 1 1 2 2 3 3 3 4 4 4 3 3 2 3 5 7 8 6 6 6 6 6 6 5 4 3 2 2 2 3 2 1 1 1 1 2 2 3 2 2 1
0 0 0 0 1 1 1 1 1 1 2 2 2 3 3 4 4 3 3 3 2 3 5 8 9 7 5 5 5 6 6 7 7 6 4 3 3 3 3 2 1 2 2 2 3 3 2 1 1
0 0 0 0 1 1 1 1 1 2 2 2 2 2 3 3 3 3 3 3 2 3 4 7 8 6 4 5 5 6 7 8 8 8 6 4 3 3 3 2 2 2 2 3 3 2 2 1 1
0 0 0 0 0 1 1 1 1 2 3 2 2 2 2 3 3 3 3 3 3 4 5 6 6 4 4 5 5 6 7 8 7 6 5 3 2 2 2 3 3 2 2 2 2 2 2 1 1
0 0 0 0 0 0 0 0 1 2 3 3 3 2 2 3 3 4 4 4 5 5 5 5 5 4 4 4 5 5 5 5 4 4 3 2 2 2 2 2 3 2 2 2 2 2 2 2 1
0 0 0 0 0 0 0 0 1 2 3 3 2 2 2 2 2 3 3 3 4 5 5 5 4 5 4 4 4 4 4 4 4 4 3 2 2 2 3 3 3 3 2 2 3 2 2 2 2
0 0 0 0 1 0 0 0 1 2 3 3 2 2 2 2 2 2 2 2 3 3 4 5 5 5 5 4 4 4 4 4 4 4 4 3 3 3 3 3 3 3 3 3 3 2 2 2 2
0 0 0 0 0 0 0 1 1 2 2 2 2 2 2 2 3 3 3 2 2 3 3 4 4 5 5 4 5 5 5 5 5 5 4 3 3 3 4 4 4 3 3 2 2 2 2 2 2
0 0 0 0 0 0 0 1 2 2 2 2 1 2 2 2 3 3 3 2 2 2 2 3 3 4 4 4 4 4 5 5 5 5 4 4 4 4 4 4 3 3 3 2 2 1 1 1 2
0 0 0 0 0 0 0 1 1 2 2 2 2 2 2 2 2 3 2 2 2 2 2 2 2 3 3 3 3 3 4 4 5 5 4 4 4 4 4 4 3 3 3 2 2 1 1 1 2
1 1 0 0 0 0 0 1 1 1 2 2 2 1 2 2 2 2 2 2 1 1 2 2 2 3 3 4 4 4 4 4 4 4 4 4 5 4 4 4 3 3 3 3 3 2 1 1 2
1 1 1 1 0 0 0 1 1 1 2 2 2 1 2 2 2 2 2 2 1 1 1 2 2 3 4 5 5 5 4 4 4 4 4 4 4 4 4 4 4 3 3 4 3 2 2 1 1
Wind_Speed
9 8 7 6 8 4 4 5 4 4 4 5 4 3 5 6 6 7 6 8 9 11 12 13 10 9 9 9 10 10 10 10 10 11 11 10 10 10 9 9 9 8 9 9 9 9 9 9 9
7 6 7 7 6 2 5 5 5 6 5 4 3 2 3 6 6 7 7 8 10 11 11 11 11 10 9 9 9 10 10 10 10 10 10 10 9 9 9 9 9 8 8 8 8 8 8 9 9
6 7 7 6 2 2 6 5 5 4 3 2 3 3 3 5 5 5 7 10 10 10 10 12 11 10 9 9 9 9 10 9 10 9 9 9 9 9 9 9 9 8 7 7 8 8 7 7 8
6 7 7 5 2 4 4 4 3 2 3 2 2 4 5 5 3 7 10 10 11 11 11 13 10 10 9 9 9 9 9 9 8 8 8 8 8 8 8 8 8 8 7 7 6 6 6 6 6
7 7 7 4 2 4 2 2 1 1 1 2 2 4 6 6 6 10 11 10 10 10 10 13 10 9 9 8 9 9 8 8 8 7 7 7 7 6 7 7 7 7 7 6 6 5 5 5 5
6 6 5 3 4 3 2 1 1 1 2 3 3 4 6 7 8 10 11 9 9 9 9 11 11 9 8 8 8 8 7 7 7 7 6 6 6 6 6 6 6 6 6 6 6 5 5 5 5
7 5 4 2 2 3 2 1 2 1 1 2 2 4 7 8 9 10 10 9 9 8 8 9 11 11 10 8 7 7 7 7 6 6 5 6 6 6 6 6 6 6 6 6 6 6 5 4 5
6 6 5 3 2 2 3 0 1 3 1 3 2 3 6 11 11 11 10 9 9 8 7 7 7 8 9 10 9 7 7 6 6 5 5 5 7 7 7 7 6 6 6 6 6 6 5 4 5
7 8 4 2 1 1 1 1 0 1 2 3 1 2 7 15 14 12 10 9 9 8 7 6 7 7 6 7 8 8 8 7 7 7 6 6 5 5 6 5 6 6 6 6 6 5 5 5 7
7 6 2 2 3 3 2 3 2 4 5 5 5 6 11 14 14 13 12 11 10 9 8 7 6 6 6 5 6 5 5 6 4 3 4 3 2 2 2 7 6 6 6 7 6 6 7 7 5
6 6 3 2 4 5 5 4 3 6 5 3 4 9 13 14 13 12 11 10 10 9 8 7 6 5 5 4 4 3 2 3 4 4 3 2 2 2 2 3 5 6 6 5 6 6 3 2 2
7 6 6 5 5 6 6 5 4 5 5 2 2 9 13 14 13 11 10 9 9 9 8 7 6 5 5 4 3 3 3 3 2 4 3 2 1 1 1 1 2 2 2 2 2 1 2 1 2
9 7 6 6 7 6 6 6 6 5 4 2 4 10 12 12 11 10 9 9 9 9 8 7 6 6 5 4 3 3 3 3 3 2 3 2 2 2 2 1 1 1 2 3 2 2 2 2 2
6 7 7 7 7 6 6 6 5 3 2 3 7 9 10 11 10 10 10 9 9 8 8 7 7 6 5 5 4 3 3 2 2 3 3 2 1 1 2 2 2 1 1 1 1 2 2 1 1
7 9 9 8 7 5 6 7 5 2 3 5 6 7 8 8 9 9 9 9 9 8 8 7 7 6 6 5 5 4 3 3 3 3 3 2 2 2 2 2 2 2 2 3 2 3 2 2 2
9 11 10 7 6 5 9 7 1 2 4 5 5 6 7 7 8 8 8 8 8 8 8 7 6 7 6 5 5 4 3 3 3 3 3 3 2 2 2 2 2 2 2 2 3 3 3 2 2
11 10 9 6 5 6 8 6 1 2 4 5 5 6 7 7 7 7 8 8 8 8 8 8 7 7 6 6 5 4 3 3 3 3 3 3 3 3 3 2 2 3 2 2 2 2 2 2 2
8 8 8 7 4 6 8 7 3 3 5 5 5 5 6 8 7 7 7 7 8 7 8 8 8 7 6 6 5 4 4 4 3 3 3 4 4 4 3 3 3 3 2 2 2 2 2 2 2
8 9 8 6 4 7 8 8 6 4 6 6 6 6 6 6 6 6 7 7 7 7 8 9 8 7 6 5 5 5 4 4 4 3 4 4 4 4 3 2 3 3 3 2 3 3 4 3 2
10 10 9 6 4 6 7 8 6 5 6 6 6 6 6 5 6 6 6 7 8 8 8 9 9 8 7 5 4 3 3 3 3 3 3 4 4 4 4 4 3 3 3 3 3 3 3 3 3
11 11 9 7 6 8 9 9 7 5 5 6 6 6 6 6 6 6 7 7 7 8 8 7 8 8 7 6 5 4 4 3 4 4 3 4 4 5 4 4 3 3 4 3 4 4 4 3 3
11 9 9 9 10 8 9 9 6 5 5 5 6 6 6 6 6 7 7 7 7 7 7 7 8 8 7 7 5 6 4 4 3 3 3 3 4 4 4 4 4 4 4 4 5 5 4 4 4
9 7 9 10 11 11 10 11 6 6 6 5 5 6 6 6 7 7 7 7 6 6 6 7 7 7 7 6 6 6 5 4 3 3 3 3 4 4 4 4 4 4 4 4 4 4 5 4 4
8 8 9 10 10 12 10 10 7 4 5 5 5 5 5 6 6 7 7 6 6 5 6 6 7 6 6 7 7 6 5 4 4 4 4 4 4 4 4 4 4 4 4 4 4 5 6 4 4
10 9 7 9 10 8 5 8 6 0 2 3 3 4 5 6 6 7 7 7 6 6 5 6 7 6 6 6 6 5 5 5 5 5 4 4 4 4 4 4 4 4 4 4 5 5 5 5 5
11 13 10 8 8 6 5 8 1 1 1 1 2 3 5 6 6 7 7 7 6 6 5 5 6 6 6 5 5 5 5 4 4 4 4 4 3 3 4 5 5 4 5 5 5 5 5 5 5
11 12 10 11 11 10 7 5 3 2 2 2 3 4 5 6 6 6 6 6 6 6 5 5 5 5 5 5 5 4 4 3 3 3 4 4 3 3 5 5 5 5 5 5 6 5 5 5 6
11 9 8 10 9 10 8 7 4 4 5 4 3 4 5 6 6 6 6 5 5 5 5 4 4 4 5 5 5 4 4 4 3 3 3 2 3 3 5 5 5 6 6 6 6 6 6 6 6
10 11 10 9 9 9 8 4 2 1 2 3 3 3 4 5 5 6 5 5 5 4 4 4 4 4 4 4 4 4 4 3 3 3 3 3 3 4 5 5 5 6 6 6 6 6 6 7 6
10 10 11 10 9 10 9 3 2 2 2 0 2 3 3 3 4 4 5 5 5 5 4 4 4 4 4 4 4 4 3 3 3 3 3 3 3 4 5 5 5 5 5 5 6 6 7 7 7
Wind_Direction
195 203 222 234 235 211 84 75 50 63 73 60 42 23 31 24 12 56 95 129 133 136 134 143 143 146 145 143 141 140 138 138 138 137 136 134 132 130 129 127 127 124 124 124 123 124 126 124 122
198 207 229 238 251 149 95 72 63 49 69 96 95 79 66 67 55 92 124 131 142 139 140 138 136 143 143 142 141 141 142 143 142 139 138 137 136 135 135 134 132 127 127 128 126 127 127 126 127
207 230 254 246 262 53 82 71 62 73 106 140 109 68 47 71 93 110 121 141 146 142 139 126 139 142 143 141 142 142 143 142 142 140 139 141 142 140 139 141 139 133 133 134 131 130 130 130 129
225 224 235 246 151 74 59 64 56 123 134 142 139 112 94 67 87 111 130 146 147 142 136 130 142 140 141 141 142 139 138 138 138 138 136 139 141 143 147 147 146 144 142 140 138 134 133 136 136
239 250 232 205 143 99 80 51 356 232 133 131 168 119 106 99 103 123 139 147 146 139 136 133 138 139 139 139 139 139 136 133 132 134 138 139 139 142 148 152 152 150 147 147 144 137 138 139 145
237 243 240 201 141 123 107 82 269 245 135 142 162 138 105 118 133 138 142 147 142 140 138 132 140 140 137 136 135 135 134 133 131 131 135 139 141 144 144 152 153 152 153 152 146 144 149 147 150
267 262 261 252 159 141 87 28 287 303 156 138 165 146 125 142 137 141 143 143 139 143 140 144 148 148 145 136 132 132 137 138 134 134 138 146 150 153 153 152 154 158 156 153 152 148 150 149 146
280 264 232 221 209 122 100 168 331 304 44 99 202 185 141 146 145 145 143 143 141 143 142 147 150 148 155 149 139 136 137 140 141 145 153 164 168 169 169 172 155 160 162 159 153 144 145 144 141
255 252 233 224 247 102 114 246 342 286 185 162 169 36 104 139 150 153 152 152 150 151 152 156 157 157 160 148 144 155 155 152 167 166 164 191 187 173 176 146 146 163 166 158 149 148 158 166 158
243 252 257 344 314 316 297 290 283 221 205 184 154 124 131 150 161 165 165 165 163 164 165 163 163 164 162 150 151 163 165 153 173 157 173 185 160 166 163 132 151 165 168 162 158 169 187 208 174
244 267 294 279 295 300 290 288 271 254 239 221 185 157 157 165 172 175 174 171 166 165 167 165 167 168 166 158 156 155 153 152 164 153 170 169 176 169 172 163 164 174 183 177 167 190 195 191 153
248 257 273 279 288 279 284 287 274 267 280 325 190 164 168 175 179 181 178 170 165 170 170 169 170 174 178 166 159 166 161 157 154 149 186 172 166 161 142 170 153 172 167 160 175 178 149 157 166
240 253 254 262 265 272 279 274 277 273 270 238 159 165 175 180 181 182 177 172 173 175 174 172 170 169 170 171 186 164 165 160 147 157 158 184 167 159 155 137 130 155 152 169 167 172 142 169 169
258 257 257 256 258 254 258 267 252 258 235 177 169 176 180 181 182 179 180 180 180 179 175 168 174 170 172 174 177 172 170 162 163 162 156 195 179 153 168 160 158 140 143 128 162 159 159 170 154
255 251 244 241 240 239 249 246 237 249 202 184 177 177 181 182 183 187 185 184 182 177 173 173 176 172 177 180 181 176 174 175 173 163 165 188 193 164 186 171 179 160 149 152 174 162 174 172 175
228 239 240 221 225 225 244 249 168 167 186 188 178 174 180 182 188 188 185 184 181 177 174 178 180 174 180 184 184 179 180 181 183 175 171 179 189 191 203 192 173 169 175 168 168 184 181 169 184
220 236 242 220 212 227 241 260 215 189 207 206 191 182 183 182 190 187 185 182 181 180 175 179 183 179 180 179 180 182 177 192 193 187 179 172 187 197 209 197 160 185 178 179 190 164 189 173 180
232 244 242 236 211 228 240 251 248 227 225 223 207 196 192 191 191 182 182 182 181 178 176 180 183 181 181 178 178 182 181 183 188 186 180 183 187 193 211 190 172 196 186 184 180 169 179 192 192
261 257 249 245 240 247 250 255 256 238 231 229 216 208 203 195 181 173 175 177 177 179 181 182 184 178 182 181 185 183 184 184 181 181 178 188 199 192 201 204 179 201 190 201 194 195 182 191 180
250 249 246 242 236 254 255 259 256 242 235 233 223 213 208 193 177 169 169 175 178 179 185 185 186 182 187 183 190 191 187 184 184 185 176 194 200 202 193 205 206 200 198 199 202 206 213 186 186
241 250 252 255 250 242 253 250 233 218 224 221 222 219 211 200 186 175 177 182 181 183 187 187 183 183 186 178 180 174 175 185 181 185 185 194 198 198 200 201 214 207 216 198 200 202 212 209 192
241 244 256 251 252 247 247 265 230 215 216 215 219 217 211 197 185 178 179 184 187 186 183 180 179 179 179 180 184 183 187 187 186 191 181 185 192 196 198 204 206 212 216 201 206 198 209 218 209
248 252 252 253 256 262 247 261 244 208 222 213 216 221 210 193 183 179 180 178 176 175 175 169 170 173 175 179 180 189 196 195 186 186 177 195 185 191 198 207 206 206 213 208 214 200 216 217 228
237 237 242 243 246 248 246 256 257 221 236 225 211 212 203 188 180 176 173 166 158 158 165 166 168 171 176 184 188 193 196 198 194 194 191 195 185 185 188 199 199 200 204 199 205 210 209 220 225
219 231 233 230 228 243 230 249 260 310 260 255 228 204 193 179 173 169 167 162 158 159 160 164 166 168 174 184 191 196 202 202 203 204 197 206 197 188 184 190 193 195 196 200 205 209 214 209 210
218 232 246 257 253 256 235 245 258 69 202 235 234 197 177 171 170 169 167 165 165 165 164 166 171 176 180 187 193 201 206 210 207 205 209 206 209 195 178 185 188 191 196 200 202 210 209 210 215
220 229 251 266 267 261 243 236 215 185 200 203 200 185 174 170 172 171 167 168 168 168 169 174 176 181 188 191 192 196 197 211 209 202 211 214 206 191 186 189 189 193 198 200 201 209 210 209 217
240 239 235 246 253 256 249 246 246 209 216 203 196 182 172 168 173 172 171 168 168 170 169 175 175 185 190 189 194 190 192 199 201 210 207 215 202 194 195 195 196 198 202 205 210 209 206 212 215
214 220 236 248 256 261 259 256 21 305 235 207 188 173 169 168 170 173 173 165 162 160 162 171 177 184 185 185 188 190 190 193 200 208 205 207 203 192 199 204 204 205 208 212 214 219 209 211 212
227 232 233 242 248 255 267 264 60 16 358 324 149 149 156 155 160 165 165 157 158 160 165 170 175 182 185 180 179 180 181 184 195 194 197 198 199 202 202 209 212 213 213 216 218 219 215 212 213